Regional Weather Roundup
Issued by NWS Cleveland, OH

Home | Current Version | Previous Version | Graphics & Text | Print | Product List | Glossary On
Versions: 1 2 3 4 5 6 7 8 9 10 11 12 13 14 15 16 17 18 19 20 21 22 23 24 25 26 27 28 29 30 31 32 33 34 35 36 37 38 39 40 41 42 43 44 45 46 47 48 49 50
000
ASUS41 KCLE 281302
RWRCLE
OHIO REGIONAL WEATHER ROUNDUP
NATIONAL WEATHER SERVICE CLEVELAND, OH
800 AM EST SUN DEC 28 2014

NOTE: "FAIR" INDICATES FEW OR NO CLOUDS BELOW 12,000 FEET WITH NO
SIGNIFICANT WEATHER AND/OR OBSTRUCTIONS TO VISIBILITY.

OHZ001>008-015>018-024>027-034-035-043-044-281400-
   NORTHWEST OHIO

CITY           SKY/WX    TMP DP  RH WIND       PRES   REMARKS
DEFIANCE       CLOUDY    35  29  78 W5        30.09S
FINDLAY        CLOUDY    34  30  85 SW5       30.08S WCI  30
TOLEDO EXPRESS CLOUDY    34  30  85 W6        30.08S WCI  29
TOLEDO EXEC    CLOUDY    35  30  82 W7        30.08S WCI  29
LIMA           CLOUDY    35  30  82 W7        30.09S WCI  29
$$

OHZ009>014-019>023-028>033-038-089-281400-
   NORTHEAST OHIO

CITY           SKY/WX    TMP DP  RH WIND       PRES   REMARKS
CLE-HOPKINS    CLOUDY    36  31  82 W7        30.08S
CLE-LAKEFRONT  MOCLDY    37  33  85 W14       30.05S
CUY CO. ARPT   CLOUDY    37  36  93 W12       30.05R
LORAIN-ELYRIA  CLOUDY    35  32  88 W7        30.07S WCI  29
ASHTABULA      CLOUDY    36  34  92 NW7       30.03R
AKRON-CANTON   LGT SNOW  35  32  88 NW8       30.04R FOG     WCI  29
WOOSTER        CLOUDY    35  32  88 NW9       30.06R WCI  28
MANSFIELD      MOCLDY    33  32  96 W5        30.05S WCI  29
YOUNGSTOWN     CLOUDY    35  33  92 W12       30.02R FOG     WCI  27
$$

OHZ042-051>053-060>062-070>072-077>081-281400-
  SOUTHWEST OHIO

CITY           SKY/WX    TMP DP  RH WIND       PRES   REMARKS
CINC-COVINGTON CLOUDY    36  31  82 N9        30.10F
CINC-LUNKEN    CLOUDY    36  35  96 NW8       30.13F
HAMILTON       CLOUDY    36  33  89 NW8       30.13S
DAYTON         CLOUDY    34  29  82 NW12      30.12R WCI  25
WRIGHT-PAT AFB CLOUDY    34  32  92 NW10      30.11R WCI  26
DAYTON GENERAL CLOUDY    34  32  92 N9        30.09F WCI  27
WILMINGTON     CLOUDY    34  32  92 N9        30.09S FOG     WCI  27
$$

OHZ036-037-039>041-045>050-054>059-063>069-073>076-082>088-281400-
  CENTRAL AND SOUTHEAST OHIO

CITY           SKY/WX    TMP DP  RH WIND       PRES   REMARKS
COLUMBUS       CLOUDY    35  35 100 NW8       30.07F FOG     WCI  29
OSU AIRPORT    CLOUDY    35  32  88 NW9       30.07S WCI  28
BOLTON FIELD   CLOUDY    36  34  93 W9        30.08F FOG
RICKENBACK AFB DRIZZLE   35  34  94 NW6       30.08S
NEWARK         CLOUDY    37  35  92 CALM      30.07R
MARION         CLOUDY    35  30  82 NW7       30.08F WCI  29
LANCASTER      CLOUDY    37  35  92 N7        30.08R FOG
ZANESVILLE     CLOUDY    37  35  92 NW8       30.06R
NEW PHILLY     LGT RAIN  37  34  89 NW8       30.06R FOG
$$


USA.gov is the U.S. government's official web portal to all federal, state and local government web resources and services.